Location: Maiden
(35.5760°N, 81.2120°W)
Time: 17:39:25
(UTC-04:00)

Landsat 7 - Pass Details

Date: 14 June 2018
Orbit: 701 x 703 km, 98.2° (Epoch: 20 August)

Event Time Altitude Azimuth Distance (km) Brightness Sun altitude
Exits shadow 22:48:24 42° 111° (ESE) 1,005 4.2 -20.4°
Maximum altitude 22:49:24 49° 73° (ENE) 908 4.2 -20.5°
Drops below altitude 10° 22:53:59 10° 360° (N) 2,176 7.1 -21.1°
Sets 22:56:18 0° 355° (N) 3,098 8.1 -21.4°
